Location: Bytom
(50.3475°N, 18.9244°E)
Time: 10:32:22
(UTC+01:00)

ISS - Pass Details

Date: 29 January 2019
Orbit: 403 x 411 km, 51.6° (Epoch: 16 February)

Event Time Altitude Azimuth Distance (km) Brightness Sun altitude
Rises 18:17:07 0° 262° (W) 2,333 1.9 -16.8°
Reaches altitude 10° 18:19:12 10° 264° (W) 1,475 0.3 -17.1°
Maximum altitude 18:22:30 76° 350° (N) 427 -3.8 -17.6°
Enters shadow 18:23:06 56° 60° (ENE) 497 -3.8 -17.7°
